Location: *
(60.1759°S, 155.0663°W)
Time: 08:32:08
(UTC+00:00)

Cosmos 2219 Rocket - Pass Details

Date: 17 September 2019
Orbit: 829 x 845 km, 71.0° (Epoch: 20 October)

Event Time Altitude Azimuth Distance (km) Brightness Sun altitude
Exits shadow 12:46:20 12° 240° (WSW) 2,348 4.4 -25.2°
Maximum altitude 12:50:46 29° 184° (S) 1,554 3.9 -24.9°
Drops below altitude 10° 12:55:44 10° 125° (SE) 2,507 5.7 -24.4°
Sets 12:58:33 0° 113° (ESE) 3,441 6.5 -24.2°
